Torna al catalogo

COSMOS 2466

GLONASS

AttivoNavigazioneMEO
NORAD 37137·PAYLOAD·🇷🇺 Russia

Lanciato Sep 2, 2010 da Baikonur Cosmodrome

Loading…

Prossimi Passaggi (prossime 24 ore)

TLE

AggiornatoSource: Space-Track

Epoca: Sep 14, 2026, 11:00 UTC

1 37137U 10041A   26257.45855010  .00000018  00000-0  00000-0 0  9996
2 37137  63.8947 187.0224 0016943 177.0537   6.6646  2.13111862124748

Traccia COSMOS 2466 in tempo reale con AllMySat

Download on the App Store